Location: Mizzole
(45.4833°N, 11.0500°E)
Time: 13:31:58
(UTC+00:00)

Cosmos 1605 Rocket - Pass Details

Date: 21 October 2019
Orbit: 944 x 1006 km, 82.9° (Epoch: 18 November)

Event Time Altitude Azimuth Distance (km) Brightness Sun altitude
Rises 17:01:44 0° 354° (N) 3,669 7.0 -7.9°
Reaches altitude 10° 17:04:19 10° 359° (N) 2,709 6.3 -8.3°
Maximum altitude 17:10:24 58° 78° (ENE) 1,105 4.0 -9.4°
Drops below altitude 10° 17:16:23 10° 157° (SSE) 2,661 6.1 -10.4°
Sets 17:18:54 0° 161° (SSE) 3,599 6.8 -10.9°
